EW8155 Weather Reports


time (UTC)temp
C
wind
direction
speed
KPH
gust
KPH
rain 1hr
cm
rain 24hr
cm
rain mn
cm
humidity
%
barometer
mb
20260506034551 20 20 8.0 20.9 0.00 0.13 0.13 80 1024.3
20260506033049 20 5 11.3 20.9 0.00 0.13 0.13 80 1024.3
20260506031558 20 46 6.4 12.9 0.00 0.13 0.13 83 1024.4
20260506030105 20 50 6.4 20.9 0.00 0.13 0.13 82 1024.3
20260506024547 19 98 6.4 14.5 0.00 0.13 0.13 83 1024.6
20260506023047 20 43 8.0 17.7 0.00 0.13 0.13 80 1024.4
20260506021545 20 67 8.0 24.1 0.00 0.13 0.13 83 1024.5
20260506020044 19 17 9.7 17.7 0.00 0.13 0.13 83 1024.6
20260506014542 20 26 8.0 19.3 0.00 0.13 0.13 83 1024.6
20260506013045 20 5 11.3 19.3 0.03 0.13 0.13 83 1024.8
20260506011539 20 52 3.2 17.7 0.03 0.13 0.13 85 1024.8
20260506010037 20 22 8.0 17.7 0.03 0.13 0.13 84 1024.8
20260506004603 20 28 8.0 19.3 0.03 0.13 0.13 84 1025.0
20260506003033 20 28 9.7 19.3 0.00 0.10 0.10 84 1025.1
20260506001529 20 28 8.0 17.7 0.00 0.10 0.10 82 1025.4
20260506000025 19 42 9.7 24.1 0.00 0.10 0.10 85 1025.6
20260505234548 18 49 8.0 14.5 0.08 0.10 0.10 88 1025.8
20260505233021 17 86 8.0 14.5 0.10 0.10 0.10 89 1025.8
20260505231519 17 79 6.4 16.1 0.10 0.10 0.10 90 1026.0
20260505230019 16 17 4.8 17.7 0.10 0.10 0.10 90 1026.3
20260505224527 17 21 9.7 20.9 0.03 0.03 0.03 88 1026.5
20260505223018 17 91 8.0 17.7 0.00 0.00 0.00 87 1026.4
20260505221517 18 98 11.3 17.7 0.00 0.00 0.00 85 1026.5
20260505220015 18 86 4.8 11.3 0.00 0.00 0.00 85 1026.6
20260505214516 17 32 3.2 12.9 0.00 0.00 0.00 90 1026.7
20260505213012 17 74 4.8 12.9 0.00 0.00 0.00 91 1026.8
20260505211508 17 85 4.8 12.9 0.00 0.00 0.00 91 1026.8
20260505210010 17 93 4.8 14.5 0.00 0.00 0.00 91 1026.7
20260505204506 17 101 6.4 12.9 0.00 0.00 0.00 91 1026.7
20260505203005 16 104 9.7 19.3 0.00 0.00 0.00 92 1026.6
20260505201505 16 96 11.3 14.5 0.00 0.00 0.00 92 1026.4
20260505200108 16 111 6.4 14.5 0.00 0.00 0.00 92 1026.3
20260505194502 16 102 0.0 0.0 0.00 0.00 0.00 92 1026.3
20260505193001 16 88 0.0 0.0 0.00 0.00 0.00 92 1026.3
20260505191600 16 82 0.0 0.0 0.00 0.00 0.00 92 1026.2
20260505190106 16 92 0.0 0.0 0.00 0.00 0.00 92 1026.2
20260505184559 15 85 0.0 0.0 0.00 0.00 0.00 92 1026.1
20260505183100 16 86 0.0 0.0 0.00 0.00 0.00 92 1026.0
20260505181557 15 103 0.0 0.0 0.00 0.00 0.00 92 1025.9
20260505174558 15 103 0.0 0.0 0.00 0.00 0.00 92 1025.9
20260505173055 15 105 0.0 0.0 0.00 0.00 0.00 91 1025.9
20260505171554 15 107 0.0 0.0 0.00 0.00 0.00 91 1026.0
20260505170053 15 107 0.0 0.0 0.00 0.00 0.00 91 1025.9
20260505164604 15 63 0.0 0.0 0.00 0.00 0.00 90 1026.1
20260505163051 16 63 0.0 4.8 0.00 0.00 0.00 90 1026.1
20260505161551 16 63 3.2 6.4 0.00 0.00 0.00 90 1026.1
20260505153048 16 77 3.2 6.4 0.00 0.00 0.00 90 1026.2
20260505151545 16 75 3.2 8.0 0.00 0.00 0.00 90 1026.2
20260505124528 16 69 3.2 6.4 0.00 0.03 0.00 88 1027.5
20260505123028 16 72 1.6 8.0 0.00 0.03 0.00 88 1027.6
20260505121525 16 76 1.6 6.4 0.00 0.03 0.00 88 1027.7
20260505120123 16 67 1.6 6.4 0.00 0.03 0.00 88 1027.7
20260505114523 16 78 4.8 11.3 0.00 0.03 0.03 89 1027.6
20260505113027 16 78 4.8 8.0 0.00 0.03 0.03 90 1027.6
20260505111521 16 49 6.4 12.9 0.00 0.03 0.03 90 1027.7
20260505101545 16 80 6.4 17.7 0.00 0.03 0.03 89 1028.2
20260505100046 16 72 6.4 14.5 0.00 0.03 0.03 89 1028.2
20260505094543 16 85 6.4 11.3 0.00 0.03 0.03 89 1028.1
20260505093042 16 80 4.8 9.7 0.00 0.03 0.03 89 1028.2
20260505091542 15 80 1.6 8.0 0.00 0.03 0.03 89 1028.1
20260505090042 15 96 3.2 12.9 0.00 0.03 0.03 89 1028.0
20260505084546 15 97 6.4 12.9 0.00 0.03 0.03 89 1027.9
20260505083040 15 90 4.8 12.9 0.00 0.03 0.03 89 1028.0
20260505081539 15 88 11.3 16.1 0.00 0.03 0.03 89 1027.9
20260505080038 15 90 11.3 16.1 0.00 0.03 0.03 89 1027.9
20260505074538 15 92 11.3 19.3 0.00 0.03 0.03 88 1027.8
20260505073043 15 82 11.3 19.3 0.00 0.03 0.03 88 1027.8
20260505071536 16 66 8.0 19.3 0.00 0.03 0.03 87 1027.7
20260505070043 16 82 12.9 20.9 0.00 0.03 0.03 87 1027.7
20260505064535 16 97 11.3 17.7 0.00 0.03 0.03 87 1027.7
20260505063034 15 92 9.7 17.7 0.00 0.03 0.03 88 1027.7
20260505061540 15 98 6.4 14.5 0.00 0.03 0.03 88 1027.8
20260505060032 15 107 9.7 16.1 0.00 0.03 0.03 88 1027.7
20260505054537 16 104 8.0 14.5 0.00 0.03 0.03 88 1027.6
20260505053033 16 104 11.3 17.7 0.00 0.03 0.03 88 1027.6
20260505051531 16 94 8.0 16.1 0.00 0.03 0.03 87 1027.6
20260505050129 16 98 11.3 19.3 0.00 0.03 0.03 87 1027.8
20260505041540 16 85 9.7 22.5 0.00 0.03 0.03 86 1027.7
20260505040036 16 80 11.3 22.5 0.00 0.03 0.03 86 1027.8